Flag for United Arab Emirates Weather past 2 weeks in Abu Dhabi, Abu Dhabi, United Arab Emirates

Now
95 °F

Clear.


Feels Like: 134 °F
Forecast: 90 / 104 °F
Wind: 9 mph from North

Location: Abu Dhabi Bateen Airport

Current Time: Jul 26, 2014 at 9:32:06 PM

Latest Report: Jul 26, 2014 at 9:00 PM


Visibility: 4 mi

Pressure: 29.47 "Hg

Humidity: 80%

Dew point: 88 °F

Location of Abu DhabiLocation

Historic Weather in Abu Dhabi — Graph

°F

Abu Dhabi temperature yesterday

Maximum temperature yesterday: 104 °F (at 3:00 PM)
Minimum temperature yesterday: 88 °F (at 4:00 AM)
Average temperature yesterday: 94 °F

Past Weeks' High & Low Weather Summary

 TemperatureHumidityPressure
High113 °F (Jul 26, 2:00 PM)94% (Jul 14, 5:00 AM)29.53 "Hg (Jul 14, 5:00 AM)
Low86 °F (Jul 14, 6:00 AM)13% (Jul 26, 2:00 PM)29.33 "Hg (Jul 17, 5:00 PM)
Average95 °F59%29.42 "Hg
* Reported Jul 11 8:00 PM — Jul 26 8:00 PM, Abu Dhabi, Weather by CustomWeather, © 2014

Note: Actual official high and low records may vary slightly from our data, if they occured in-between our weather recording intervals... More about our weather records

Advertising

Abu Dhabi weather history for previous 24 hours

 ConditionsComfort  
Time TempWeatherWind HumidityBarometerVisibility
8:00 PM
Jul 26
95 °FClear.9 mph80%29.47 "Hg4 mi
7:00 PM95 °FClear.10 mph75%29.45 "Hg4 mi
6:00 PM97 °FClear.14 mph71%29.45 "Hg4 mi
5:00 PM99 °FClear.13 mph71%29.42 "Hg5 mi
4:00 PM100 °FClear.15 mph68%29.42 "Hg5 mi
3:00 PM100 °FClear.16 mph60%29.45 "Hg5 mi
2:00 PM113 °FClear.7 mph13%29.45 "Hg4 mi
1:00 PM111 °FClear.5 mph14%29.47 "Hg4 mi
12:00 PM109 °FClear.9 mph17%29.47 "Hg4 mi
8:00 AM93 °FClear.6 mph63%29.47 "Hg5 mi
7:00 AM91 °FClear.8 mph67%29.47 "Hg5 mi
6:00 AM91 °FClear.8 mph71%29.45 "Hg6 mi
5:00 AM91 °FClear.7 mph71%29.45 "Hg10 mi
4:00 AM91 °FClear.6 mph71%29.42 "Hg10 mi
3:00 AM93 °FPassing clouds.5 mph63%29.42 "HgN/A
2:00 AM91 °FPassing clouds.3 mph67%29.42 "HgN/A
1:00 AM93 °FPassing clouds.5 mph59%29.42 "HgN/A
12:00 AM93 °FPassing clouds.5 mph59%29.45 "HgN/A
11:00 PM
Jul 25
93 °FClear.6 mph56%29.45 "Hg10 mi
10:00 PM93 °FClear.6 mph67%29.45 "Hg6 mi
9:00 PM93 °FClear.5 mph67%29.42 "Hg6 mi
Weather by CustomWeather, © 2014

See weather overviewHow to use our weather pages